| time (UTC) | temp F | wind direction | speed knots | gust knots | rain 1hr in | rain 24hr in | rain mn in | humidity % | barometer mb |
| 20260902135521 | 83 | 17 | 0.0 | 3.5 | 0.00 | 0.21 | 0.00 | 94 | 1015.7 |
| 20260902135019 | 84 | 13 | 0.0 | 4.3 | 0.00 | 0.21 | 0.00 | 93 | 1015.5 |
| 20260902134543 | 84 | 106 | 0.9 | 4.3 | 0.00 | 0.21 | 0.00 | 93 | 1015.4 |
| 20260902134022 | 84 | 0 | 0.0 | 2.6 | 0.00 | 0.21 | 0.00 | 93 | 1015.4 |
| 20260902133521 | 84 | 63 | 0.9 | 2.6 | 0.00 | 0.21 | 0.00 | 92 | 1015.6 |
| 20260902133039 | 84 | 0 | 0.0 | 3.5 | 0.00 | 0.21 | 0.00 | 93 | 1015.6 |
| 20260902132524 | 84 | 357 | 0.9 | 3.5 | 0.00 | 0.21 | 0.00 | 93 | 1015.7 |
| 20260902132020 | 83 | 0 | 0.0 | 2.6 | 0.00 | 0.21 | 0.00 | 95 | 1015.8 |
| 20260902131543 | 82 | 0 | 0.0 | 1.7 | 0.00 | 0.21 | 0.00 | 96 | 1015.8 |
| 20260902131020 | 81 | 317 | 0.0 | 2.6 | 0.00 | 0.21 | 0.00 | 97 | 1015.8 |
| 20260902130525 | 80 | 335 | 0.0 | 3.5 | 0.00 | 0.21 | 0.00 | 99 | 1015.8 |
| 20260902130041 | 80 | 328 | 0.9 | 3.5 | 0.00 | 0.21 | 0.00 | 100 | 1015.8 |
| 20260902125520 | 79 | 280 | 0.9 | 4.3 | 0.00 | 0.21 | 0.00 | 100 | 1015.7 |
| 20260902125022 | 79 | 342 | 0.9 | 4.3 | 0.00 | 0.21 | 0.00 | 100 | 1015.7 |
| 20260902124540 | 79 | 0 | 0.0 | 0.0 | 0.00 | 0.21 | 0.00 | 100 | 1015.7 |
| 20260902124024 | 78 | 0 | 0.0 | 0.0 | 0.00 | 0.21 | 0.00 | 100 | 1015.6 |
| 20260902123521 | 78 | 0 | 0.0 | 0.0 | 0.00 | 0.21 | 0.00 | 100 | 1015.5 |
| 20260902123041 | 78 | 0 | 0.0 | 0.0 | 0.00 | 0.21 | 0.00 | 100 | 1015.5 |
| 20260902122524 | 78 | 0 | 0.0 | 0.0 | 0.00 | 0.21 | 0.00 | 100 | 1015.5 |
| 20260902122019 | 77 | 0 | 0.0 | 0.0 | 0.00 | 0.21 | 0.00 | 100 | 1015.5 |
| 20260902121547 | 77 | 0 | 0.0 | 0.0 | 0.00 | 0.21 | 0.00 | 100 | 1015.5 |
| 20260902121020 | 77 | 0 | 0.0 | 0.0 | 0.00 | 0.21 | 0.00 | 100 | 1015.5 |
| 20260902120519 | 77 | 0 | 0.0 | 0.0 | 0.00 | 0.21 | 0.00 | 100 | 1015.5 |
| 20260902120043 | 77 | 0 | 0.0 | 0.9 | 0.00 | 0.21 | 0.00 | 100 | 1015.5 |
| 20260902115550 | 76 | 0 | 0.0 | 0.9 | 0.00 | 0.21 | 0.00 | 100 | 1015.4 |
| 20260902115018 | 76 | 0 | 0.0 | 0.0 | 0.00 | 0.21 | 0.00 | 100 | 1015.3 |
| 20260902114542 | 76 | 0 | 0.0 | 0.0 | 0.00 | 0.21 | 0.00 | 100 | 1015.4 |
| 20260902114017 | 76 | 0 | 0.0 | 0.0 | 0.00 | 0.21 | 0.00 | 100 | 1015.2 |
| 20260902113520 | 76 | 0 | 0.0 | 0.0 | 0.00 | 0.21 | 0.00 | 100 | 1015.2 |
| 20260902113036 | 75 | 0 | 0.0 | 0.0 | 0.00 | 0.21 | 0.00 | 100 | 1015.2 |
| 20260902112521 | 75 | 0 | 0.0 | 0.0 | 0.00 | 0.21 | 0.00 | 100 | 1015.2 |
| 20260902112021 | 75 | 0 | 0.0 | 0.0 | 0.00 | 0.21 | 0.00 | 100 | 1015.1 |
| 20260902111537 | 75 | 0 | 0.0 | 0.0 | 0.00 | 0.21 | 0.00 | 100 | 1015.1 |
| 20260902111019 | 75 | 0 | 0.0 | 0.0 | 0.00 | 0.21 | 0.00 | 100 | 1015.2 |
| 20260902110520 | 75 | 0 | 0.0 | 0.0 | 0.00 | 0.21 | 0.00 | 100 | 1015.1 |
| 20260902110041 | 75 | 0 | 0.0 | 0.0 | 0.00 | 0.21 | 0.00 | 100 | 1015.1 |
| 20260902105519 | 75 | 0 | 0.0 | 0.0 | 0.00 | 0.21 | 0.00 | 100 | 1015.2 |
| 20260902105019 | 75 | 0 | 0.0 | 0.0 | 0.00 | 0.21 | 0.00 | 100 | 1015.0 |
| 20260902104600 | 74 | 0 | 0.0 | 0.0 | 0.00 | 0.21 | 0.00 | 100 | 1015.0 |
| 20260902104019 | 75 | 0 | 0.0 | 0.0 | 0.00 | 0.21 | 0.00 | 100 | 1014.9 |
| 20260902103523 | 75 | 0 | 0.0 | 0.0 | 0.00 | 0.21 | 0.00 | 100 | 1014.9 |
| 20260902103038 | 75 | 0 | 0.0 | 0.0 | 0.00 | 0.21 | 0.00 | 100 | 1014.8 |
| 20260902102521 | 75 | 0 | 0.0 | 0.0 | 0.00 | 0.21 | 0.00 | 100 | 1014.8 |
| 20260902102020 | 75 | 0 | 0.0 | 0.0 | 0.00 | 0.21 | 0.00 | 100 | 1014.8 |
| 20260902101534 | 75 | 0 | 0.0 | 0.0 | 0.00 | 0.21 | 0.00 | 100 | 1014.8 |
| 20260902101019 | 75 | 0 | 0.0 | 0.0 | 0.00 | 0.21 | 0.00 | 100 | 1014.8 |
| 20260902100520 | 75 | 0 | 0.0 | 0.0 | 0.00 | 0.21 | 0.00 | 100 | 1014.7 |
| 20260902100047 | 75 | 0 | 0.0 | 0.0 | 0.00 | 0.21 | 0.00 | 100 | 1014.6 |
| 20260902095520 | 75 | 0 | 0.0 | 0.0 | 0.00 | 0.21 | 0.00 | 100 | 1014.5 |
| 20260902095019 | 75 | 0 | 0.0 | 0.0 | 0.00 | 0.21 | 0.00 | 100 | 1014.5 |
| 20260902094535 | 75 | 0 | 0.0 | 0.0 | 0.00 | 0.21 | 0.00 | 100 | 1014.4 |
| 20260902094021 | 75 | 0 | 0.0 | 0.0 | 0.00 | 0.21 | 0.00 | 100 | 1014.4 |
| 20260902093523 | 75 | 0 | 0.0 | 0.0 | 0.00 | 0.21 | 0.00 | 100 | 1014.3 |
| 20260902093037 | 75 | 0 | 0.0 | 0.0 | 0.00 | 0.21 | 0.00 | 100 | 1014.3 |
| 20260902092519 | 75 | 0 | 0.0 | 0.0 | 0.00 | 0.21 | 0.00 | 100 | 1014.3 |
| 20260902092026 | 75 | 0 | 0.0 | 0.0 | 0.00 | 0.21 | 0.00 | 100 | 1014.1 |
| 20260902091539 | 75 | 0 | 0.0 | 0.0 | 0.00 | 0.21 | 0.00 | 100 | 1014.1 |
| 20260902091019 | 75 | 0 | 0.0 | 0.0 | 0.00 | 0.21 | 0.00 | 100 | 1014.0 |
| 20260902090518 | 75 | 0 | 0.0 | 0.0 | 0.00 | 0.21 | 0.00 | 100 | 1014.0 |
| 20260902090036 | 76 | 0 | 0.0 | 0.0 | 0.00 | 0.21 | 0.00 | 100 | 1013.9 |
| 20260902085519 | 75 | 0 | 0.0 | 0.0 | 0.00 | 0.21 | 0.00 | 100 | 1013.9 |
| 20260902085021 | 75 | 0 | 0.0 | 0.9 | 0.00 | 0.21 | 0.00 | 100 | 1013.9 |
| 20260902084541 | 75 | 0 | 0.0 | 0.9 | 0.00 | 0.21 | 0.00 | 100 | 1014.0 |
| 20260902084022 | 75 | 0 | 0.0 | 0.9 | 0.00 | 0.21 | 0.00 | 100 | 1014.1 |
| 20260902083521 | 75 | 0 | 0.0 | 0.0 | 0.00 | 0.21 | 0.00 | 100 | 1014.1 |
| 20260902083036 | 75 | 0 | 0.0 | 0.0 | 0.00 | 0.21 | 0.00 | 100 | 1014.1 |
| 20260902082519 | 75 | 0 | 0.0 | 0.0 | 0.00 | 0.21 | 0.00 | 100 | 1014.1 |
| 20260902082023 | 75 | 0 | 0.0 | 0.0 | 0.00 | 0.21 | 0.00 | 100 | 1014.2 |
| 20260902081605 | 75 | 0 | 0.0 | 0.0 | 0.00 | 0.21 | 0.00 | 100 | 1014.1 |
| 20260902081023 | 75 | 0 | 0.0 | 0.0 | 0.00 | 0.21 | 0.00 | 100 | 1014.1 |
| 20260902080521 | 75 | 0 | 0.0 | 0.0 | 0.00 | 0.21 | 0.00 | 100 | 1014.3 |
| 20260902080053 | 75 | 0 | 0.0 | 0.0 | 0.00 | 0.21 | 0.00 | 100 | 1014.2 |
| 20260902075520 | 75 | 0 | 0.0 | 0.0 | 0.00 | 0.21 | 0.00 | 100 | 1014.3 |
| 20260902075019 | 74 | 0 | 0.0 | 0.0 | 0.00 | 0.21 | 0.00 | 100 | 1014.3 |
| 20260902074544 | 74 | 0 | 0.0 | 0.0 | 0.00 | 0.21 | 0.00 | 100 | 1014.3 |
| 20260902074021 | 74 | 0 | 0.0 | 0.0 | 0.00 | 0.21 | 0.00 | 100 | 1014.4 |
| 20260902073520 | 74 | 0 | 0.0 | 0.0 | 0.00 | 0.21 | 0.00 | 100 | 1014.4 |
| 20260902073039 | 74 | 0 | 0.0 | 0.0 | 0.00 | 0.21 | 0.00 | 100 | 1014.4 |
| 20260902072526 | 74 | 0 | 0.0 | 0.0 | 0.00 | 0.21 | 0.00 | 100 | 1014.3 |
| 20260902072023 | 74 | 0 | 0.0 | 0.0 | 0.00 | 0.21 | 0.00 | 100 | 1014.3 |
| 20260902071540 | 74 | 0 | 0.0 | 0.0 | 0.00 | 0.21 | 0.00 | 100 | 1014.2 |
| 20260902071021 | 74 | 0 | 0.0 | 0.0 | 0.00 | 0.21 | 0.00 | 100 | 1014.4 |
| 20260902070524 | 74 | 0 | 0.0 | 0.0 | 0.00 | 0.21 | 0.00 | 100 | 1014.5 |
| 20260902070043 | 74 | 0 | 0.0 | 0.0 | 0.00 | 0.21 | 0.00 | 100 | 1014.5 |
| 20260902065523 | 74 | 0 | 0.0 | 0.0 | 0.00 | 0.21 | 0.00 | 100 | 1014.5 |
| 20260902065021 | 74 | 0 | 0.0 | 0.0 | 0.00 | 0.21 | 0.00 | 100 | 1014.5 |
| 20260902064540 | 74 | 0 | 0.0 | 0.0 | 0.00 | 0.21 | 0.00 | 100 | 1014.5 |
| 20260902064023 | 75 | 0 | 0.0 | 0.0 | 0.00 | 0.21 | 0.00 | 100 | 1014.5 |
| 20260902063519 | 75 | 0 | 0.0 | 0.0 | 0.00 | 0.21 | 0.00 | 100 | 1014.6 |
| 20260902063056 | 75 | 0 | 0.0 | 0.0 | 0.00 | 0.21 | 0.00 | 100 | 1014.7 |
| 20260902062524 | 75 | 0 | 0.0 | 0.0 | 0.00 | 0.21 | 0.00 | 100 | 1014.7 |
| 20260902062021 | 75 | 0 | 0.0 | 0.0 | 0.00 | 0.21 | 0.00 | 100 | 1014.7 |
| 20260902061545 | 75 | 0 | 0.0 | 0.0 | 0.00 | 0.21 | 0.00 | 100 | 1014.7 |
| 20260902061035 | 75 | 0 | 0.0 | 0.0 | 0.00 | 0.21 | 0.00 | 100 | 1014.5 |
| 20260902060520 | 75 | 0 | 0.0 | 0.0 | 0.00 | 0.21 | 0.00 | 100 | 1014.6 |
| 20260902060054 | 75 | 0 | 0.0 | 0.0 | 0.00 | 0.21 | 0.00 | 100 | 1014.6 |
| 20260902055521 | 75 | 0 | 0.0 | 0.0 | 0.00 | 0.21 | 0.00 | 100 | 1014.6 |
| 20260902055020 | 75 | 0 | 0.0 | 0.0 | 0.00 | 0.21 | 0.00 | 100 | 1014.5 |
| 20260902054543 | 75 | 0 | 0.0 | 0.0 | 0.00 | 0.21 | 0.00 | 100 | 1014.6 |
| 20260902054020 | 75 | 0 | 0.0 | 0.0 | 0.00 | 0.21 | 0.00 | 100 | 1014.7 |
| 20260902053519 | 75 | 0 | 0.0 | 0.0 | 0.00 | 0.21 | 0.00 | 100 | 1014.6 |
| 20260902053042 | 75 | 0 | 0.0 | 0.0 | 0.00 | 0.21 | 0.00 | 100 | 1014.7 |
| 20260902052519 | 75 | 0 | 0.0 | 0.0 | 0.00 | 0.21 | 0.00 | 100 | 1014.7 |
| 20260902052018 | 75 | 0 | 0.0 | 0.0 | 0.00 | 0.21 | 0.00 | 100 | 1014.8 |
| 20260902051537 | 75 | 0 | 0.0 | 0.0 | 0.00 | 0.21 | 0.00 | 100 | 1014.7 |
| 20260902051020 | 75 | 0 | 0.0 | 0.0 | 0.00 | 0.21 | 0.00 | 100 | 1014.7 |
| 20260902050521 | 75 | 0 | 0.0 | 0.0 | 0.00 | 0.21 | 0.00 | 100 | 1014.7 |
| 20260902050036 | 75 | 0 | 0.0 | 0.0 | 0.00 | 0.21 | 0.00 | 100 | 1014.6 |
| 20260902045518 | 75 | 0 | 0.0 | 0.0 | 0.00 | 0.21 | 0.00 | 100 | 1014.7 |
| 20260902045019 | 75 | 0 | 0.0 | 0.0 | 0.00 | 0.21 | 0.00 | 100 | 1014.8 |
| 20260902044545 | 75 | 0 | 0.0 | 0.0 | 0.00 | 0.21 | 0.00 | 100 | 1014.8 |
| 20260902044022 | 75 | 0 | 0.0 | 0.0 | 0.00 | 0.21 | 0.00 | 100 | 1014.8 |
| 20260902043520 | 75 | 0 | 0.0 | 0.0 | 0.00 | 0.21 | 0.00 | 100 | 1014.9 |
| 20260902043041 | 75 | 0 | 0.0 | 0.0 | 0.00 | 0.21 | 0.00 | 100 | 1014.9 |
| 20260902042519 | 75 | 0 | 0.0 | 0.0 | 0.00 | 0.21 | 0.00 | 100 | 1014.9 |
| 20260902042017 | 75 | 0 | 0.0 | 0.0 | 0.00 | 0.21 | 0.00 | 100 | 1015.0 |
| 20260902041539 | 75 | 0 | 0.0 | 0.0 | 0.00 | 0.21 | 0.00 | 100 | 1015.0 |
| 20260902041020 | 75 | 0 | 0.0 | 0.0 | 0.00 | 0.21 | 0.00 | 100 | 1015.0 |
| 20260902040521 | 75 | 0 | 0.0 | 0.0 | 0.00 | 0.21 | 0.00 | 100 | 1015.1 |
| 20260902040037 | 75 | 0 | 0.0 | 0.0 | 0.00 | 0.21 | 0.00 | 100 | 1015.1 |
| 20260902035518 | 75 | 0 | 0.0 | 0.0 | 0.00 | 0.21 | 0.21 | 100 | 1015.2 |
| 20260902035019 | 75 | 0 | 0.0 | 0.0 | 0.00 | 0.21 | 0.21 | 100 | 1015.2 |
| 20260902034537 | 75 | 0 | 0.0 | 0.0 | 0.00 | 0.21 | 0.21 | 100 | 1015.2 |
| 20260902034019 | 75 | 0 | 0.0 | 0.0 | 0.00 | 0.21 | 0.21 | 100 | 1015.3 |
| 20260902033520 | 75 | 0 | 0.0 | 0.0 | 0.00 | 0.21 | 0.21 | 100 | 1015.4 |
| 20260902033037 | 75 | 0 | 0.0 | 0.0 | 0.00 | 0.21 | 0.21 | 100 | 1015.4 |
| 20260902032521 | 76 | 0 | 0.0 | 0.0 | 0.00 | 0.21 | 0.21 | 100 | 1015.5 |
| 20260902032024 | 76 | 0 | 0.0 | 0.0 | 0.00 | 0.21 | 0.21 | 100 | 1015.5 |
| 20260902031542 | 76 | 0 | 0.0 | 0.0 | 0.00 | 0.21 | 0.21 | 100 | 1015.5 |
| 20260902031020 | 76 | 0 | 0.0 | 0.0 | 0.00 | 0.21 | 0.21 | 100 | 1015.5 |
| 20260902030521 | 76 | 0 | 0.0 | 0.0 | 0.00 | 0.21 | 0.21 | 100 | 1015.4 |
| 20260902030038 | 76 | 0 | 0.0 | 0.0 | 0.00 | 0.21 | 0.21 | 100 | 1015.5 |
| 20260902025521 | 76 | 0 | 0.0 | 0.0 | 0.00 | 0.21 | 0.21 | 100 | 1015.6 |
| 20260902025020 | 76 | 0 | 0.0 | 0.0 | 0.00 | 0.21 | 0.21 | 100 | 1015.6 |
| 20260902024537 | 76 | 0 | 0.0 | 0.0 | 0.00 | 0.21 | 0.21 | 100 | 1015.6 |
| 20260902024019 | 76 | 0 | 0.0 | 0.0 | 0.00 | 0.21 | 0.21 | 100 | 1015.8 |
| 20260902023519 | 76 | 0 | 0.0 | 0.0 | 0.00 | 0.21 | 0.21 | 100 | 1015.7 |
| 20260902023040 | 76 | 0 | 0.0 | 0.0 | 0.00 | 0.21 | 0.21 | 100 | 1015.8 |
| 20260902022520 | 76 | 0 | 0.0 | 0.0 | 0.00 | 0.21 | 0.21 | 100 | 1015.8 |
| 20260902022019 | 76 | 0 | 0.0 | 0.0 | 0.00 | 0.21 | 0.21 | 100 | 1015.8 |
| 20260902021543 | 76 | 0 | 0.0 | 0.0 | 0.00 | 0.21 | 0.21 | 100 | 1015.7 |
| 20260902021025 | 76 | 0 | 0.0 | 0.0 | 0.00 | 0.21 | 0.21 | 100 | 1015.8 |
| 20260902020525 | 76 | 0 | 0.0 | 0.0 | 0.00 | 0.21 | 0.21 | 100 | 1015.8 |
| 20260902020043 | 77 | 0 | 0.0 | 0.0 | 0.00 | 0.21 | 0.21 | 99 | 1015.7 |
| 20260902015518 | 77 | 0 | 0.0 | 0.0 | 0.00 | 0.21 | 0.21 | 99 | 1015.7 |
| 20260902015020 | 77 | 0 | 0.0 | 0.0 | 0.00 | 0.21 | 0.21 | 99 | 1015.7 |
| 20260902014548 | 77 | 0 | 0.0 | 0.0 | 0.00 | 0.21 | 0.21 | 98 | 1015.8 |
| 20260902014019 | 77 | 0 | 0.0 | 0.0 | 0.00 | 0.21 | 0.21 | 99 | 1015.7 |
| 20260902013519 | 77 | 0 | 0.0 | 0.0 | 0.00 | 0.21 | 0.21 | 99 | 1015.6 |
| 20260902013037 | 77 | 0 | 0.0 | 0.0 | 0.00 | 0.21 | 0.21 | 98 | 1015.6 |
| 20260902012518 | 77 | 0 | 0.0 | 0.0 | 0.00 | 0.21 | 0.21 | 98 | 1015.5 |
| 20260902012021 | 77 | 0 | 0.0 | 0.0 | 0.00 | 0.21 | 0.21 | 98 | 1015.4 |
| 20260902011537 | 78 | 0 | 0.0 | 0.0 | 0.00 | 0.21 | 0.21 | 98 | 1015.3 |
| 20260902011024 | 78 | 0 | 0.0 | 0.0 | 0.00 | 0.21 | 0.21 | 98 | 1015.3 |
| 20260902010521 | 78 | 0 | 0.0 | 0.0 | 0.00 | 0.21 | 0.21 | 97 | 1015.2 |
| 20260902010034 | 78 | 0 | 0.0 | 0.0 | 0.00 | 0.21 | 0.21 | 97 | 1015.2 |
| 20260902005519 | 78 | 0 | 0.0 | 0.0 | 0.00 | 0.21 | 0.21 | 97 | 1015.2 |
| 20260902005020 | 78 | 0 | 0.0 | 0.0 | 0.00 | 0.21 | 0.21 | 96 | 1015.1 |
| 20260902004542 | 79 | 0 | 0.0 | 0.0 | 0.00 | 0.21 | 0.21 | 96 | 1015.1 |
| 20260902004022 | 79 | 0 | 0.0 | 0.0 | 0.00 | 0.21 | 0.21 | 96 | 1015.2 |
| 20260902003522 | 79 | 0 | 0.0 | 0.0 | 0.00 | 0.21 | 0.21 | 96 | 1015.2 |
| 20260902003040 | 79 | 0 | 0.0 | 0.0 | 0.00 | 0.21 | 0.21 | 95 | 1015.3 |
| 20260902002520 | 80 | 0 | 0.0 | 0.0 | 0.00 | 0.21 | 0.21 | 95 | 1015.4 |
| 20260902002019 | 80 | 0 | 0.0 | 0.0 | 0.00 | 0.21 | 0.21 | 94 | 1015.2 |
| 20260902001539 | 80 | 0 | 0.0 | 0.0 | 0.00 | 0.21 | 0.21 | 94 | 1015.2 |
| 20260902001020 | 80 | 0 | 0.0 | 0.9 | 0.00 | 0.21 | 0.21 | 93 | 1015.3 |
| 20260902000521 | 81 | 0 | 0.0 | 0.9 | 0.00 | 0.21 | 0.21 | 93 | 1015.2 |
| 20260902000044 | 81 | 0 | 0.0 | 2.6 | 0.00 | 0.21 | 0.21 | 93 | 1015.2 |
| 20260901235524 | 81 | 24 | 0.9 | 2.6 | 0.00 | 0.21 | 0.21 | 92 | 1015.3 |
| 20260901235020 | 81 | 0 | 0.0 | 0.0 | 0.00 | 0.21 | 0.21 | 92 | 1015.3 |
| 20260901234559 | 81 | 0 | 0.0 | 0.0 | 0.00 | 0.21 | 0.21 | 92 | 1015.4 |
| 20260901234020 | 81 | 0 | 0.0 | 0.0 | 0.00 | 0.21 | 0.21 | 91 | 1015.4 |
| 20260901233517 | 81 | 0 | 0.0 | 0.0 | 0.00 | 0.21 | 0.21 | 91 | 1015.3 |
| 20260901233049 | 81 | 0 | 0.0 | 0.0 | 0.00 | 0.21 | 0.21 | 90 | 1015.3 |
| 20260901232516 | 81 | 0 | 0.0 | 0.0 | 0.00 | 0.21 | 0.21 | 90 | 1015.1 |
| 20260901232022 | 81 | 0 | 0.0 | 0.9 | 0.00 | 0.21 | 0.21 | 89 | 1015.1 |
| 20260901231536 | 82 | 0 | 0.0 | 2.6 | 0.00 | 0.21 | 0.21 | 89 | 1015.1 |
| 20260901231019 | 82 | 0 | 0.0 | 2.6 | 0.00 | 0.21 | 0.21 | 89 | 1015.1 |
| 20260901230521 | 82 | 345 | 0.0 | 2.6 | 0.00 | 0.21 | 0.21 | 88 | 1015.1 |
| 20260901230037 | 82 | 0 | 0.0 | 1.7 | 0.00 | 0.21 | 0.21 | 88 | 1015.1 |
| 20260901225525 | 82 | 8 | 0.0 | 1.7 | 0.00 | 0.21 | 0.21 | 87 | 1015.1 |
| 20260901225021 | 83 | 0 | 0.0 | 0.9 | 0.00 | 0.21 | 0.21 | 87 | 1015.1 |
| 20260901224540 | 83 | 0 | 0.0 | 2.6 | 0.00 | 0.21 | 0.21 | 87 | 1015.1 |
| 20260901224020 | 83 | 52 | 0.0 | 3.5 | 0.00 | 0.21 | 0.21 | 87 | 1015.1 |
| 20260901223521 | 83 | 0 | 0.0 | 4.3 | 0.00 | 0.21 | 0.21 | 86 | 1015.0 |
| 20260901223037 | 83 | 343 | 0.9 | 6.1 | 0.00 | 0.21 | 0.21 | 85 | 1015.0 |
| 20260901222521 | 83 | 8 | 0.9 | 6.1 | 0.00 | 0.21 | 0.21 | 85 | 1014.9 |
| 20260901222019 | 84 | 335 | 0.9 | 5.2 | 0.00 | 0.21 | 0.21 | 85 | 1014.8 |
| 20260901221601 | 84 | 0 | 0.0 | 4.3 | 0.00 | 0.21 | 0.21 | 88 | 1014.7 |
| 20260901221020 | 84 | 0 | 0.0 | 4.3 | 0.00 | 0.21 | 0.21 | 88 | 1014.5 |
| 20260901220519 | 84 | 12 | 0.9 | 4.3 | 0.00 | 0.21 | 0.21 | 88 | 1014.5 |
| 20260901220042 | 84 | 356 | 0.9 | 5.2 | 0.00 | 0.21 | 0.21 | 88 | 1014.5 |
| 20260901215519 | 84 | 4 | 0.0 | 5.2 | 0.00 | 0.21 | 0.21 | 88 | 1014.4 |
| 20260901215022 | 84 | 0 | 0.9 | 4.3 | 0.00 | 0.21 | 0.21 | 87 | 1014.3 |
| 20260901214538 | 85 | 0 | 0.0 | 6.1 | 0.00 | 0.21 | 0.21 | 88 | 1014.2 |
| 20260901214025 | 85 | 0 | 0.9 | 6.1 | 0.00 | 0.21 | 0.21 | 87 | 1014.3 |
| 20260901213520 | 85 | 295 | 0.9 | 4.3 | 0.00 | 0.21 | 0.21 | 87 | 1014.4 |
| 20260901213039 | 85 | 41 | 0.9 | 4.3 | 0.00 | 0.21 | 0.21 | 86 | 1014.4 |
| 20260901212519 | 86 | 290 | 0.9 | 4.3 | 0.00 | 0.21 | 0.21 | 84 | 1014.5 |
| 20260901212024 | 86 | 313 | 0.9 | 4.3 | 0.00 | 0.21 | 0.21 | 84 | 1014.3 |
| 20260901211538 | 86 | 0 | 0.0 | 4.3 | 0.00 | 0.21 | 0.21 | 86 | 1014.3 |
| 20260901211022 | 86 | 341 | 0.9 | 4.3 | 0.00 | 0.21 | 0.21 | 84 | 1014.5 |
| 20260901210523 | 86 | 74 | 0.9 | 5.2 | 0.00 | 0.21 | 0.21 | 85 | 1014.4 |
| 20260901210040 | 86 | 341 | 0.9 | 7.0 | 0.00 | 0.21 | 0.21 | 84 | 1014.3 |
| 20260901205521 | 86 | 357 | 1.7 | 7.0 | 0.00 | 0.21 | 0.21 | 82 | 1014.4 |
| 20260901205019 | 87 | 342 | 1.7 | 6.1 | 0.00 | 0.21 | 0.21 | 81 | 1014.4 |
| 20260901204539 | 87 | 30 | 0.9 | 6.1 | 0.00 | 0.21 | 0.21 | 82 | 1014.4 |
| 20260901204019 | 87 | 75 | 0.9 | 6.1 | 0.00 | 0.21 | 0.21 | 81 | 1014.4 |
| 20260901203519 | 88 | 98 | 1.7 | 5.2 | 0.00 | 0.21 | 0.21 | 80 | 1014.6 |
| 20260901203049 | 88 | 60 | 0.0 | 5.2 | 0.00 | 0.21 | 0.21 | 79 | 1014.7 |
| 20260901202520 | 89 | 21 | 0.9 | 5.2 | 0.00 | 0.21 | 0.21 | 78 | 1014.7 |
| 20260901202030 | 90 | 320 | 0.9 | 5.2 | 0.00 | 0.21 | 0.21 | 77 | 1014.8 |
| 20260901201546 | 89 | 24 | 0.9 | 4.3 | 0.00 | 0.21 | 0.21 | 80 | 1014.7 |
| 20260901201021 | 88 | 0 | 0.9 | 5.2 | 0.00 | 0.21 | 0.21 | 82 | 1014.7 |
| 20260901200521 | 88 | 33 | 1.7 | 5.2 | 0.00 | 0.21 | 0.21 | 80 | 1014.8 |
| 20260901200040 | 87 | 0 | 0.0 | 3.5 | 0.00 | 0.21 | 0.21 | 81 | 1014.9 |
| 20260901195519 | 87 | 18 | 0.0 | 4.3 | 0.00 | 0.21 | 0.21 | 81 | 1014.9 |
| 20260901195022 | 87 | 0 | 1.7 | 4.3 | 0.00 | 0.21 | 0.21 | 80 | 1015.0 |
| 20260901194537 | 87 | 318 | 1.7 | 4.3 | 0.00 | 0.21 | 0.21 | 80 | 1015.0 |
| 20260901194023 | 87 | 0 | 0.0 | 4.3 | 0.00 | 0.21 | 0.21 | 80 | 1015.0 |
| 20260901193523 | 87 | 56 | 0.9 | 3.5 | 0.00 | 0.21 | 0.21 | 80 | 1014.9 |
| 20260901193038 | 87 | 60 | 0.0 | 3.5 | 0.00 | 0.21 | 0.21 | 82 | 1015.1 |
| 20260901192524 | 87 | 0 | 0.0 | 2.6 | 0.00 | 0.21 | 0.21 | 82 | 1015.2 |
| 20260901192028 | 88 | 0 | 0.0 | 4.3 | 0.00 | 0.21 | 0.21 | 82 | 1015.1 |
| 20260901191544 | 88 | 0 | 0.0 | 4.3 | 0.00 | 0.21 | 0.21 | 84 | 1015.1 |
| 20260901191019 | 88 | 46 | 0.0 | 4.3 | 0.00 | 0.21 | 0.21 | 80 | 1015.0 |
| 20260901190520 | 87 | 11 | 0.0 | 4.3 | 0.00 | 0.21 | 0.21 | 83 | 1015.1 |
| 20260901190044 | 87 | 29 | 0.9 | 3.5 | 0.00 | 0.21 | 0.21 | 82 | 1015.2 |
| 20260901185520 | 87 | 0 | 0.0 | 4.3 | 0.00 | 0.21 | 0.21 | 84 | 1015.2 |
| 20260901185020 | 87 | 0 | 0.0 | 4.3 | 0.00 | 0.21 | 0.21 | 87 | 1015.3 |
| 20260901184538 | 86 | 4 | 0.9 | 3.5 | 0.00 | 0.21 | 0.21 | 86 | 1015.4 |
| 20260901184019 | 85 | 0 | 0.0 | 0.9 | 0.00 | 0.21 | 0.21 | 89 | 1015.3 |
| 20260901183522 | 85 | 0 | 0.0 | 0.9 | 0.00 | 0.21 | 0.21 | 90 | 1015.3 |
| 20260901183039 | 85 | 0 | 0.0 | 0.9 | 0.00 | 0.21 | 0.21 | 93 | 1015.3 |
| 20260901182519 | 84 | 0 | 0.0 | 0.0 | 0.00 | 0.21 | 0.21 | 96 | 1015.4 |
| 20260901182024 | 84 | 0 | 0.0 | 0.0 | 0.00 | 0.21 | 0.21 | 96 | 1015.5 |
| 20260901181540 | 83 | 0 | 0.0 | 0.9 | 0.00 | 0.21 | 0.21 | 96 | 1015.5 |
| 20260901181020 | 83 | 0 | 0.0 | 0.9 | 0.00 | 0.21 | 0.21 | 98 | 1015.5 |
| 20260901180521 | 83 | 0 | 0.0 | 0.9 | 0.00 | 0.21 | 0.21 | 97 | 1015.6 |
| 20260901180037 | 83 | 0 | 0.0 | 0.9 | 0.00 | 0.21 | 0.21 | 98 | 1015.8 |
| 20260901175521 | 82 | 0 | 0.0 | 0.9 | 0.00 | 0.21 | 0.21 | 99 | 1015.9 |
| 20260901175020 | 82 | 0 | 0.0 | 0.0 | 0.00 | 0.21 | 0.21 | 98 | 1016.0 |
| 20260901174540 | 82 | 0 | 0.0 | 0.0 | 0.00 | 0.21 | 0.21 | 100 | 1016.1 |
| 20260901174024 | 82 | 0 | 0.0 | 0.0 | 0.00 | 0.21 | 0.21 | 100 | 1016.2 |
| 20260901173519 | 82 | 0 | 0.0 | 0.0 | 0.00 | 0.21 | 0.21 | 100 | 1016.2 |
| 20260901173036 | 81 | 0 | 0.0 | 1.7 | 0.00 | 0.21 | 0.21 | 100 | 1016.2 |
| 20260901172516 | 81 | 0 | 0.0 | 1.7 | 0.00 | 0.21 | 0.21 | 100 | 1016.3 |
| 20260901172025 | 81 | 0 | 0.0 | 1.7 | 0.00 | 0.21 | 0.21 | 100 | 1016.4 |
| 20260901171539 | 81 | 0 | 0.0 | 0.0 | 0.19 | 0.21 | 0.21 | 100 | 1016.3 |
| 20260901171023 | 81 | 0 | 0.0 | 0.9 | 0.19 | 0.21 | 0.21 | 100 | 1016.4 |
| 20260901170524 | 81 | 0 | 0.0 | 0.9 | 0.19 | 0.21 | 0.21 | 100 | 1016.4 |
| 20260901170041 | 81 | 0 | 0.0 | 0.0 | 0.19 | 0.21 | 0.21 | 100 | 1016.4 |
| 20260901165520 | 81 | 0 | 0.0 | 0.0 | 0.19 | 0.23 | 0.21 | 100 | 1016.4 |
| 20260901165020 | 81 | 0 | 0.0 | 0.0 | 0.19 | 0.23 | 0.21 | 100 | 1016.5 |
| 20260901164540 | 81 | 0 | 0.0 | 0.0 | 0.19 | 0.23 | 0.21 | 99 | 1016.4 |
| 20260901164018 | 81 | 0 | 0.0 | 0.0 | 0.19 | 0.23 | 0.21 | 98 | 1016.5 |
| 20260901163519 | 81 | 0 | 0.0 | 0.0 | 0.19 | 0.23 | 0.21 | 98 | 1016.6 |
| 20260901163039 | 81 | 0 | 0.0 | 2.6 | 0.20 | 0.23 | 0.21 | 96 | 1016.6 |
| 20260901162518 | 82 | 0 | 0.0 | 2.6 | 0.21 | 0.23 | 0.21 | 93 | 1016.6 |
| 20260901162020 | 85 | 239 | 0.0 | 2.6 | 0.20 | 0.22 | 0.20 | 87 | 1016.6 |
| 20260901161544 | 87 | 346 | 0.0 | 2.6 | 0.02 | 0.04 | 0.02 | 82 | 1016.7 |
| 20260901161023 | 88 | 0 | 0.0 | 0.9 | 0.02 | 0.04 | 0.02 | 82 | 1016.7 |
| 20260901160522 | 88 | 0 | 0.0 | 3.5 | 0.02 | 0.04 | 0.02 | 80 | 1016.7 |
| 20260901160051 | 88 | 0 | 0.0 | 3.5 | 0.02 | 0.04 | 0.02 | 86 | 1016.8 |
| 20260901155520 | 88 | 302 | 0.0 | 2.6 | 0.02 | 0.04 | 0.02 | 86 | 1016.8 |
| 20260901155022 | 88 | 0 | 0.0 | 2.6 | 0.02 | 0.04 | 0.02 | 89 | 1016.7 |
| 20260901154539 | 87 | 0 | 0.0 | 0.9 | 0.02 | 0.04 | 0.02 | 89 | 1016.7 |
| 20260901154019 | 86 | 0 | 0.0 | 0.0 | 0.02 | 0.04 | 0.02 | 91 | 1016.8 |
| 20260901153519 | 86 | 0 | 0.0 | 2.6 | 0.02 | 0.04 | 0.02 | 88 | 1016.8 |
| 20260901153041 | 88 | 0 | 0.0 | 2.6 | 0.01 | 0.03 | 0.01 | 83 | 1016.9 |
| 20260901152523 | 89 | 0 | 0.0 | 2.6 | 0.00 | 0.02 | 0.00 | 79 | 1016.8 |
| 20260901152020 | 89 | 0 | 0.0 | 0.9 | 0.00 | 0.02 | 0.00 | 78 | 1016.8 |
| 20260901151535 | 89 | 259 | 0.0 | 0.9 | 0.00 | 0.02 | 0.00 | 80 | 1016.7 |
| 20260901151024 | 88 | 0 | 0.0 | 1.7 | 0.00 | 0.02 | 0.00 | 83 | 1016.8 |
| 20260901150519 | 88 | 0 | 0.0 | 1.7 | 0.00 | 0.02 | 0.00 | 82 | 1016.7 |
| 20260901150039 | 87 | 0 | 0.0 | 1.7 | 0.00 | 0.02 | 0.00 | 83 | 1016.7 |
| 20260901145520 | 86 | 0 | 0.0 | 0.9 | 0.00 | 0.02 | 0.00 | 84 | 1016.7 |
| 20260901145021 | 86 | 0 | 0.0 | 0.9 | 0.00 | 0.02 | 0.00 | 84 | 1016.7 |
| 20260901144540 | 86 | 0 | 0.0 | 0.9 | 0.00 | 0.02 | 0.00 | 86 | 1016.7 |
| 20260901144019 | 86 | 0 | 0.0 | 0.9 | 0.00 | 0.02 | 0.00 | 86 | 1016.7 |
| 20260901143519 | 85 | 0 | 0.0 | 0.9 | 0.00 | 0.02 | 0.00 | 86 | 1016.7 |
| 20260901143036 | 86 | 0 | 0.0 | 1.7 | 0.00 | 0.02 | 0.00 | 87 | 1016.7 |
| 20260901142521 | 85 | 0 | 0.0 | 1.7 | 0.00 | 0.02 | 0.00 | 89 | 1016.6 |
| 20260901142023 | 84 | 20 | 0.0 | 1.7 | 0.00 | 0.02 | 0.00 | 89 | 1016.5 |
| 20260901141537 | 84 | 0 | 0.0 | 0.0 | 0.00 | 0.02 | 0.00 | 91 | 1016.5 |
| 20260901141021 | 84 | 0 | 0.0 | 0.0 | 0.00 | 0.02 | 0.00 | 90 | 1016.5 |
| 20260901140520 | 84 | 0 | 0.0 | 0.9 | 0.00 | 0.02 | 0.00 | 91 | 1016.5 |
| 20260901140040 | 83 | 0 | 0.0 | 0.9 | 0.00 | 0.02 | 0.00 | 92 | 1016.5 |